Location: *
(51.5000°N, 0.1100°W)
Time: 17:00:55
(UTC+00:00)

Cosmos 2181 Rocket - Pass Details

Date: 25 May 2024
Orbit: 951 x 1014 km, 82.9° (Epoch: 16 June)

Event Time Altitude Azimuth Distance (km) Brightness Sun altitude
Rises 02:42:53 0° 347° (NNW) 3,743 7.7 -8.9°
Reaches altitude 10° 02:45:29 10° 343° (NNW) 2,781 6.9 -8.7°
Maximum altitude 02:51:41 56° 268° (W) 1,171 4.2 -8.1°
Drops below altitude 10° 02:57:45 10° 192° (SSW) 2,720 5.8 -7.4°
Enters shadow 02:59:34 - 189° (S) 3,395 6.3 -7.3°
